Grand Marais Airport, MN

2:19 PM CDT on March 27, 2017 (GMT -0500)
Grand Marais-Cook County

Weather History for KCKC - March, 2013

Change the Weather History Date:

Friday, March 1, 2013

  Actual Average Record
Temperature  
Mean Temperature 12 °F -  
Max Temperature 21 °F 21 °F 44 °F (1998)
Min Temperature 3 °F 6 °F -20 °F (2014)
Degree Days  
Heating Degree Days 53    
Moisture  
Dew Point -15 °F    
Average Humidity 32    
Maximum Humidity 56    
Minimum Humidity 20    
Precipitation  
Precipitation 0.00 in - - ()
Sea Level Pressure  
Sea Level Pressure 30.31 in    
Wind  
Wind Speed 11 mph (North)    
Max Wind Speed 16 mph    
Max Gust Speed 21 mph    
Visibility 10 miles    
Events      
Averages and records for this station are not official NWS values.
T = Trace of Precipitation, MM = Missing Value Source: NWS Daily Summary

Daily Weather History Graph

Daily Weather History Graph

Search for Another Location

Airport or City:

Trip Planner

Search our weather history database for the weather conditions in past years. The results will help you decide how hot, cold, wet, or windy it might be!

Date:

Astronomy

Mar. 01, 2013 Rise Set
Actual Time 6:41 AM CST 5:46 PM CST
Civil Twilight 6:10 AM CST 6:17 PM CST
Nautical Twilight 5:35 AM CST 6:53 PM CST
Astronomical Twilight 4:59 AM CST 7:29 PM CST
Moon 10:44 PM CST (3/1) 8:06 AM CST (3/1)
Length of Visible Light 12h 06m
Length of Day
11h 04m
Waning Gibbous, 83% of the Moon is Illuminated
Mar 1
Waning Gibbous
Mar 4
Last Quarter
Mar 11
New
Mar 19
First Quarter
Mar 27
Full

Hourly Weather History & Observations

Time (CST) Temp. Windchill Dew Point Humidity Pressure Visibility Wind Dir Wind Speed Gust Speed Precip Events Conditions
12:14 AM 8.6 °F -6.3 °F -5.8 °F 52% 30.25 in 10.0 mi North 11.5 mph 17.3 mph N/A   Clear
12:34 AM 8.6 °F -6.3 °F -5.8 °F 52% 30.26 in 10.0 mi North 11.5 mph - N/A   Clear
12:53 AM 8.6 °F -6.3 °F -5.8 °F 52% 30.26 in 10.0 mi North 11.5 mph - N/A   Clear
1:13 AM 6.8 °F -8.6 °F -5.8 °F 56% 30.26 in 10.0 mi North 11.5 mph - N/A   Clear
1:34 AM 6.8 °F -7.8 °F -5.8 °F 56% 30.27 in 10.0 mi North 10.4 mph 16.1 mph N/A   Clear
2:13 AM 6.8 °F -6.9 °F -5.8 °F 56% 30.27 in 10.0 mi North 9.2 mph 17.3 mph N/A   Clear
2:33 AM 6.8 °F -7.8 °F -5.8 °F 56% 30.27 in 10.0 mi North 10.4 mph - N/A   Scattered Clouds
2:54 AM 6.8 °F -7.8 °F -5.8 °F 56% 30.27 in 10.0 mi North 10.4 mph - N/A   Scattered Clouds
3:14 AM 6.8 °F -9.3 °F -7.6 °F 52% 30.27 in 10.0 mi North 12.7 mph - N/A   Clear
3:54 AM 6.8 °F -9.3 °F -7.6 °F 52% 30.28 in 10.0 mi North 12.7 mph - N/A   Clear
4:13 AM 6.8 °F -11.3 °F -9.4 °F 48% 30.28 in 10.0 mi North 16.1 mph 20.7 mph N/A   Clear
4:34 AM 5.0 °F -10.8 °F -11.2 °F 47% 30.28 in 10.0 mi North 11.5 mph - N/A   Scattered Clouds
4:54 AM 5.0 °F -8.1 °F -13.0 °F 43% 30.29 in 10.0 mi North 8.1 mph - N/A   Clear
5:13 AM 5.0 °F -9.1 °F -14.8 °F 40% 30.30 in 10.0 mi North 9.2 mph - N/A   Clear
5:34 AM 3.2 °F -12.2 °F -14.8 °F 43% 30.30 in 10.0 mi North 10.4 mph - N/A   Clear
6:13 AM 3.2 °F -13.9 °F -14.8 °F 43% 30.31 in 10.0 mi North 12.7 mph - N/A   Clear
6:33 AM 3.2 °F -12.2 °F -16.6 °F 39% 30.31 in 10.0 mi North 10.4 mph - N/A   Clear
6:54 AM 3.2 °F -13.9 °F -16.6 °F 39% 30.31 in 10.0 mi North 12.7 mph - N/A   Clear
7:14 AM 3.2 °F -13.9 °F -16.6 °F 39% 30.32 in 10.0 mi North 12.7 mph 18.4 mph N/A   Clear
7:34 AM 3.2 °F -14.6 °F -16.6 °F 39% 30.32 in 10.0 mi North 13.8 mph - N/A   Clear
8:13 AM 6.8 °F -10.0 °F -18.4 °F 31% 30.33 in 10.0 mi North 13.8 mph - N/A   Clear
8:34 AM 6.8 °F -10.0 °F -18.4 °F 31% 30.33 in 10.0 mi North 13.8 mph - N/A   Clear
8:54 AM 8.6 °F -7.0 °F -20.2 °F 26% 30.33 in 10.0 mi NNE 12.7 mph - N/A   Clear
9:13 AM 10.4 °F -5.4 °F -20.2 °F 24% 30.34 in 10.0 mi NNE 13.8 mph - N/A   Clear
9:34 AM 12.2 °F -1.8 °F -20.2 °F 22% 30.34 in 10.0 mi North 11.5 mph 19.6 mph N/A   Clear
10:13 AM 14.0 °F 0.5 °F -18.4 °F 22% 30.36 in 10.0 mi North 11.5 mph - N/A   Clear
10:33 AM 14.0 °F 2.0 °F -16.6 °F 25% 30.36 in 10.0 mi NE 9.2 mph - N/A   Clear
10:53 AM 15.8 °F 2.1 °F -16.6 °F 23% 30.36 in 10.0 mi NE 12.7 mph - N/A   Clear
11:13 AM 15.8 °F 3.4 °F -16.6 °F 23% 30.36 in 10.0 mi NNE 10.4 mph - N/A   Clear
11:33 AM 17.6 °F 6.4 °F -16.6 °F 21% 30.35 in 10.0 mi NE 9.2 mph 19.6 mph N/A   Clear
12:13 PM 19.4 °F 7.2 °F -14.8 °F 21% 30.35 in 10.0 mi NNE 11.5 mph 18.4 mph N/A   Clear
12:34 PM 19.4 °F 8.6 °F -14.8 °F 21% 30.35 in 10.0 mi NNE 9.2 mph 16.1 mph N/A   Clear
12:53 PM 19.4 °F 7.9 °F -14.8 °F 21% 30.34 in 10.0 mi NE 10.4 mph - N/A   Clear
1:13 PM 19.4 °F 9.5 °F -14.8 °F 21% 30.34 in 10.0 mi NNE 8.1 mph - N/A   Clear
1:34 PM 21.2 °F 11.7 °F -14.8 °F 20% 30.33 in 10.0 mi NE 8.1 mph - N/A   Clear
1:53 PM 21.2 °F 10.9 °F -14.8 °F 20% 30.33 in 10.0 mi NNE 9.2 mph - N/A   Clear
2:13 PM 21.2 °F 10.1 °F -14.8 °F 20% 30.33 in 10.0 mi North 10.4 mph - N/A   Clear
2:34 PM 21.2 °F 9.5 °F -14.8 °F 20% 30.33 in 10.0 mi North 11.5 mph - N/A   Clear
2:53 PM 21.2 °F 9.5 °F -13.0 °F 22% 30.32 in 10.0 mi NE 11.5 mph - N/A   Clear
3:14 PM 21.2 °F 10.9 °F -14.8 °F 20% 30.32 in 10.0 mi North 9.2 mph - N/A   Clear
3:34 PM 21.2 °F 9.5 °F -14.8 °F 20% 30.32 in 10.0 mi NNW 11.5 mph - N/A   Clear
4:14 PM 19.4 °F 9.5 °F -14.8 °F 21% 30.33 in 10.0 mi North 8.1 mph - N/A   Clear
4:34 PM 19.4 °F 8.6 °F -11.2 °F 25% 30.33 in 10.0 mi NNW 9.2 mph - N/A   Clear
4:53 PM 19.4 °F 8.6 °F -13.0 °F 23% 30.33 in 10.0 mi North 9.2 mph - N/A   Clear
5:14 PM 17.6 °F 8.2 °F -16.6 °F 21% 30.33 in 10.0 mi North 6.9 mph - N/A   Clear
5:33 PM 17.6 °F 7.3 °F -14.8 °F 23% 30.33 in 10.0 mi North 8.1 mph - N/A   Clear
5:54 PM 17.6 °F 6.4 °F -16.6 °F 21% 30.33 in 10.0 mi North 9.2 mph - N/A   Clear
6:13 PM 15.8 °F 6.1 °F -16.6 °F 23% 30.32 in 10.0 mi North 6.9 mph - N/A   Clear
6:34 PM 15.8 °F 5.1 °F -16.6 °F 23% 30.33 in 10.0 mi North 8.1 mph - N/A   Clear
6:54 PM 15.8 °F 5.1 °F -14.8 °F 25% 30.33 in 10.0 mi NNW 8.1 mph - N/A   Clear
7:13 PM 14.0 °F 2.0 °F -16.6 °F 25% 30.33 in 10.0 mi North 9.2 mph - N/A   Clear
7:34 PM 14.0 °F 1.2 °F -16.6 °F 25% 30.32 in 10.0 mi North 10.4 mph - N/A   Clear
7:54 PM 12.2 °F -1.8 °F -16.6 °F 27% 30.32 in 10.0 mi North 11.5 mph - N/A   Clear
8:13 PM 12.2 °F -1.8 °F -18.4 °F 24% 30.32 in 10.0 mi North 11.5 mph - N/A   Clear
8:34 PM 12.2 °F -1.0 °F -16.6 °F 27% 30.32 in 10.0 mi North 10.4 mph - N/A   Clear
8:53 PM 12.2 °F -1.8 °F -16.6 °F 27% 30.32 in 10.0 mi North 11.5 mph - N/A   Clear
9:14 PM 10.4 °F -4.1 °F -16.6 °F 29% 30.31 in 10.0 mi NNW 11.5 mph - N/A   Clear
9:33 PM 10.4 °F -4.8 °F -16.6 °F 29% 30.31 in 10.0 mi North 12.7 mph - N/A   Clear
9:54 PM 10.4 °F -3.3 °F -16.6 °F 29% 30.31 in 10.0 mi North 10.4 mph - N/A   Clear
10:13 PM 8.6 °F -5.5 °F -16.6 °F 31% 30.31 in 10.0 mi North 10.4 mph - N/A   Clear
10:33 PM 8.6 °F -7.0 °F -18.4 °F 28% 30.30 in 10.0 mi North 12.7 mph - N/A   Clear
10:54 PM 6.8 °F -8.6 °F -18.4 °F 31% 30.30 in 10.0 mi North 11.5 mph - N/A   Clear
11:13 PM 6.8 °F -6.9 °F -18.4 °F 31% 30.30 in 10.0 mi North 9.2 mph - N/A   Clear
11:34 PM 6.8 °F -8.6 °F -18.4 °F 31% 30.29 in 10.0 mi North 11.5 mph - N/A   Clear
11:53 PM 6.8 °F -7.8 °F -18.4 °F 31% 30.29 in 10.0 mi North 10.4 mph - N/A   Clear